| time (UTC) | temp C | wind direction | speed KPH | gust KPH | rain 1hr cm | rain 24hr cm | rain mn cm | humidity % | barometer mb |
| 20260508025337 | 12 | 180 | 0.0 | 0.0 | 0.00 | 1.07 | 1.07 | 97 | 1012.4 |
| 20260508024837 | 12 | 180 | 0.0 | 0.0 | 0.00 | 1.07 | 1.07 | 97 | 1012.4 |
| 20260508024337 | 12 | 180 | 0.0 | 0.0 | 0.00 | 1.07 | 1.07 | 97 | 1012.2 |
| 20260508023837 | 12 | 180 | 0.0 | 0.0 | 0.00 | 1.07 | 1.07 | 97 | 1011.8 |
| 20260508023337 | 12 | 180 | 0.0 | 0.0 | 0.00 | 1.07 | 1.07 | 97 | 1012.0 |
| 20260508022837 | 12 | 180 | 0.0 | 0.0 | 0.00 | 1.07 | 1.07 | 97 | 1012.1 |
| 20260508022337 | 12 | 180 | 0.0 | 0.0 | 0.00 | 1.07 | 1.07 | 97 | 1012.0 |
| 20260508021837 | 12 | 180 | 0.0 | 0.0 | 0.00 | 1.07 | 1.07 | 97 | 1012.0 |
| 20260508021559 | 12 | 180 | 0.0 | 0.0 | 0.00 | 1.07 | 1.07 | 97 | 1012.0 |
| 20260508020837 | 12 | 180 | 0.0 | 0.0 | 0.00 | 1.07 | 1.07 | 97 | 1011.9 |
| 20260508020337 | 12 | 180 | 0.0 | 0.0 | 0.00 | 1.07 | 1.07 | 97 | 1012.0 |
| 20260508020055 | 12 | 180 | 0.0 | 0.0 | 0.00 | 1.07 | 1.07 | 97 | 1012.0 |
| 20260508015338 | 12 | 180 | 0.0 | 0.0 | 0.00 | 1.07 | 1.07 | 97 | 1011.9 |
| 20260508014837 | 12 | 180 | 0.0 | 0.0 | 0.00 | 1.07 | 1.07 | 97 | 1011.9 |
| 20260508014553 | 12 | 180 | 0.0 | 0.0 | 0.00 | 1.07 | 1.07 | 97 | 1011.4 |
| 20260508013837 | 12 | 180 | 0.0 | 0.0 | 0.00 | 1.07 | 1.07 | 97 | 1011.3 |
| 20260508013337 | 12 | 180 | 0.0 | 0.0 | 0.00 | 1.07 | 1.07 | 97 | 1011.2 |
| 20260508012837 | 12 | 180 | 0.0 | 0.0 | 0.00 | 1.07 | 1.07 | 97 | 1011.2 |
| 20260508012337 | 12 | 180 | 0.0 | 0.0 | 0.00 | 1.07 | 1.07 | 97 | 1011.2 |
| 20260508011837 | 12 | 180 | 0.0 | 0.0 | 0.00 | 1.07 | 1.07 | 97 | 1011.1 |
| 20260508011337 | 12 | 180 | 0.0 | 0.0 | 0.00 | 1.07 | 1.07 | 97 | 1011.2 |
| 20260508010837 | 12 | 180 | 0.0 | 0.0 | 0.00 | 1.07 | 1.07 | 97 | 1011.2 |
| 20260508010337 | 12 | 180 | 0.0 | 0.0 | 0.00 | 1.07 | 1.07 | 97 | 1011.4 |
| 20260508005837 | 12 | 180 | 0.0 | 1.6 | 0.00 | 1.07 | 1.07 | 97 | 1011.2 |
| 20260508005337 | 12 | 180 | 0.0 | 1.6 | 0.00 | 1.07 | 1.07 | 97 | 1011.1 |
| 20260508004837 | 12 | 160 | 0.0 | 0.0 | 0.00 | 1.07 | 1.07 | 97 | 1011.1 |
| 20260508004337 | 12 | 160 | 0.0 | 1.6 | 0.00 | 1.07 | 1.07 | 97 | 1010.8 |
| 20260508003837 | 12 | 160 | 0.0 | 1.6 | 0.00 | 1.07 | 1.07 | 97 | 1010.8 |
| 20260508003337 | 12 | 156 | 0.0 | 3.2 | 0.00 | 1.07 | 1.07 | 97 | 1010.3 |
| 20260508003054 | 12 | 157 | 0.0 | 3.2 | 0.00 | 1.07 | 1.07 | 97 | 1010.6 |
| 20260508002337 | 12 | 141 | 0.0 | 3.2 | 0.00 | 1.07 | 1.07 | 97 | 1010.6 |
| 20260508001837 | 12 | 340 | 0.0 | 1.6 | 0.00 | 1.07 | 1.07 | 97 | 1010.8 |
| 20260508001558 | 12 | 340 | 0.0 | 3.2 | 0.00 | 1.07 | 1.07 | 97 | 1010.9 |
| 20260508000837 | 12 | 341 | 0.0 | 3.2 | 0.00 | 1.07 | 1.07 | 97 | 1010.7 |
| 20260508000554 | 12 | 346 | 0.0 | 0.0 | 0.00 | 1.07 | 1.07 | 97 | 1010.8 |
| 20260508000101 | 12 | 346 | 0.0 | 3.2 | 0.00 | 1.07 | 1.07 | 97 | 1010.7 |
| 20260507235337 | 12 | 346 | 0.0 | 3.2 | 0.00 | 1.07 | 1.07 | 97 | 1010.4 |
| 20260507234837 | 12 | 346 | 0.0 | 4.8 | 0.00 | 1.07 | 1.07 | 97 | 1010.1 |
| 20260507234337 | 12 | 340 | 1.6 | 4.8 | 0.00 | 1.07 | 1.07 | 97 | 1010.4 |
| 20260507233837 | 12 | 10 | 1.6 | 3.2 | 0.00 | 1.07 | 1.07 | 97 | 1010.1 |
| 20260507233336 | 12 | 5 | 0.0 | 6.4 | 0.00 | 1.07 | 1.07 | 97 | 1010.2 |
| 20260507232837 | 12 | 340 | 3.2 | 6.4 | 0.00 | 1.07 | 1.07 | 97 | 1009.8 |
| 20260507232337 | 12 | 105 | 0.0 | 3.2 | 0.00 | 1.07 | 1.07 | 97 | 1009.5 |
| 20260507231837 | 12 | 141 | 0.0 | 3.2 | 0.00 | 1.07 | 1.07 | 97 | 1009.7 |
| 20260507231337 | 12 | 32 | 1.6 | 1.6 | 0.00 | 1.07 | 1.07 | 97 | 1009.6 |
| 20260507230837 | 12 | 322 | 0.0 | 4.8 | 0.00 | 1.07 | 1.07 | 97 | 1009.7 |
| 20260507230337 | 12 | 104 | 0.0 | 4.8 | 0.00 | 1.07 | 1.07 | 97 | 1009.7 |
| 20260507225837 | 12 | 341 | 3.2 | 6.4 | 0.00 | 1.07 | 1.07 | 97 | 1009.5 |
| 20260507225337 | 12 | 334 | 4.8 | 6.4 | 0.00 | 1.07 | 1.07 | 97 | 1009.7 |
| 20260507224837 | 12 | 17 | 0.0 | 6.4 | 0.00 | 1.07 | 1.07 | 97 | 1009.6 |
| 20260507224337 | 12 | 328 | 3.2 | 6.4 | 0.00 | 1.07 | 1.07 | 97 | 1009.6 |
| 20260507223837 | 12 | 277 | 1.6 | 9.7 | 0.00 | 1.07 | 1.07 | 98 | 1009.7 |
| 20260507223337 | 12 | 127 | 3.2 | 9.7 | 0.00 | 1.07 | 1.07 | 98 | 1009.4 |
| 20260507222837 | 12 | 341 | 3.2 | 6.4 | 0.00 | 1.07 | 1.07 | 98 | 1009.2 |
| 20260507222556 | 12 | 356 | 0.0 | 6.4 | 0.00 | 1.07 | 1.07 | 97 | 1009.5 |
| 20260507221837 | 12 | 288 | 1.6 | 9.7 | 0.00 | 1.07 | 1.07 | 98 | 1009.6 |
| 20260507221337 | 12 | 19 | 3.2 | 9.7 | 0.00 | 1.07 | 1.07 | 97 | 1010.0 |
| 20260507220837 | 12 | 32 | 1.6 | 6.4 | 0.00 | 1.07 | 1.07 | 98 | 1009.7 |
| 20260507220557 | 12 | 103 | 4.8 | 6.4 | 0.00 | 1.07 | 1.07 | 97 | 1009.8 |
| 20260507215837 | 12 | 251 | 1.6 | 4.8 | 0.00 | 1.07 | 1.07 | 98 | 1009.7 |
| 20260507215557 | 12 | 278 | 1.6 | 6.4 | 0.00 | 1.07 | 1.07 | 98 | 1009.5 |
| 20260507214837 | 12 | 77 | 1.6 | 4.8 | 0.00 | 1.07 | 1.07 | 98 | 1009.4 |
| 20260507214602 | 12 | 111 | 1.6 | 4.8 | 0.00 | 1.07 | 1.07 | 98 | 1009.5 |
| 20260507213837 | 12 | 340 | 1.6 | 6.4 | 0.00 | 1.07 | 1.07 | 98 | 1009.6 |
| 20260507213337 | 12 | 336 | 4.8 | 6.4 | 0.00 | 1.07 | 1.07 | 98 | 1009.6 |
| 20260507212837 | 12 | 111 | 3.2 | 6.4 | 0.00 | 1.07 | 1.07 | 98 | 1009.5 |
| 20260507211837 | 12 | 176 | 0.0 | 3.2 | 0.00 | 1.07 | 1.07 | 98 | 1009.4 |
| 20260507211337 | 12 | 224 | 1.6 | 6.4 | 0.00 | 1.07 | 1.07 | 98 | 1009.5 |
| 20260507210837 | 12 | 93 | 3.2 | 6.4 | 0.00 | 1.07 | 1.07 | 98 | 1009.4 |
| 20260507210559 | 12 | 215 | 0.0 | 6.4 | 0.00 | 1.07 | 1.07 | 98 | 1009.1 |
| 20260507205837 | 12 | 342 | 1.6 | 4.8 | 0.00 | 1.07 | 1.07 | 98 | 1009.0 |
| 20260507205337 | 12 | 45 | 0.0 | 11.3 | 0.00 | 1.07 | 1.07 | 98 | 1009.1 |
| 20260507204837 | 12 | 32 | 1.6 | 12.9 | 0.00 | 1.07 | 1.07 | 98 | 1008.8 |
| 20260507204337 | 12 | 124 | 1.6 | 12.9 | 0.00 | 1.07 | 1.07 | 98 | 1008.8 |
| 20260507203837 | 12 | 304 | 3.2 | 17.7 | 0.00 | 1.07 | 1.07 | 98 | 1009.4 |
| 20260507203557 | 12 | 212 | 4.8 | 17.7 | 0.00 | 1.07 | 1.07 | 98 | 1008.9 |
| 20260507202837 | 12 | 49 | 0.0 | 12.9 | 0.00 | 1.07 | 1.07 | 98 | 1009.1 |
| 20260507202336 | 12 | 283 | 3.2 | 11.3 | 0.00 | 1.07 | 1.07 | 98 | 1008.9 |
| 20260507201837 | 12 | 327 | 3.2 | 11.3 | 0.00 | 1.07 | 1.07 | 98 | 1009.0 |
| 20260507201337 | 12 | 312 | 8.0 | 16.1 | 0.03 | 1.07 | 1.07 | 98 | 1008.5 |
| 20260507200837 | 12 | 262 | 8.0 | 16.1 | 0.03 | 1.07 | 1.07 | 98 | 1008.7 |
| 20260507200337 | 12 | 30 | 1.6 | 14.5 | 0.03 | 1.07 | 1.07 | 98 | 1008.8 |
| 20260507195837 | 12 | 32 | 3.2 | 14.5 | 0.03 | 1.07 | 1.07 | 98 | 1008.8 |
| 20260507195559 | 13 | 43 | 1.6 | 14.5 | 0.03 | 1.07 | 1.07 | 98 | 1008.4 |
| 20260507194837 | 13 | 345 | 1.6 | 11.3 | 0.03 | 1.07 | 1.07 | 98 | 1008.6 |
| 20260507194336 | 13 | 340 | 6.4 | 17.7 | 0.03 | 1.07 | 1.07 | 98 | 1008.5 |
| 20260507193836 | 13 | 9 | 8.0 | 17.7 | 0.03 | 1.09 | 1.07 | 98 | 1008.5 |
| 20260507193336 | 13 | 359 | 0.0 | 4.8 | 0.03 | 1.09 | 1.07 | 98 | 1008.7 |
| 20260507192837 | 13 | 47 | 0.0 | 4.8 | 0.03 | 1.09 | 1.04 | 98 | 1008.9 |
| 20260507192337 | 13 | 22 | 0.0 | 16.1 | 0.03 | 1.12 | 1.04 | 98 | 1008.9 |
| 20260507191837 | 13 | 358 | 0.0 | 16.1 | 0.03 | 1.12 | 1.04 | 98 | 1009.1 |
| 20260507191337 | 13 | 342 | 0.0 | 6.4 | 0.03 | 1.12 | 1.04 | 98 | 1008.8 |
| 20260507190837 | 13 | 292 | 3.2 | 6.4 | 0.03 | 1.12 | 1.04 | 98 | 1009.1 |
| 20260507190558 | 13 | 355 | 0.0 | 16.1 | 0.03 | 1.14 | 1.04 | 98 | 1008.7 |
| 20260507185837 | 13 | 354 | 0.0 | 16.1 | 0.03 | 1.27 | 1.04 | 98 | 1008.5 |
| 20260507185337 | 13 | 288 | 0.0 | 11.3 | 0.03 | 1.35 | 1.04 | 98 | 1008.4 |
| 20260507184837 | 13 | 11 | 0.0 | 11.3 | 0.03 | 1.40 | 1.04 | 98 | 1008.1 |
| 20260507184337 | 13 | 331 | 0.0 | 11.3 | 0.00 | 1.37 | 1.04 | 98 | 1008.3 |
| 20260507184053 | 13 | 331 | 0.0 | 1.6 | 0.00 | 1.37 | 1.04 | 98 | 1008.7 |
| 20260507183337 | 13 | 343 | 0.0 | 9.7 | 0.00 | 1.37 | 1.04 | 97 | 1008.5 |
| 20260507182837 | 13 | 355 | 0.0 | 9.7 | 0.00 | 1.37 | 1.04 | 98 | 1008.3 |
| 20260507182337 | 14 | 39 | 1.6 | 16.1 | 0.00 | 1.37 | 1.02 | 97 | 1007.9 |
| 20260507181837 | 14 | 308 | 3.2 | 16.1 | 0.00 | 1.37 | 1.02 | 98 | 1008.2 |
| 20260507181337 | 14 | 56 | 0.0 | 4.8 | 0.00 | 1.37 | 1.02 | 97 | 1008.2 |
| 20260507180837 | 14 | 28 | 1.6 | 11.3 | 0.00 | 1.37 | 1.02 | 97 | 1007.9 |
| 20260507180337 | 14 | 95 | 6.4 | 11.3 | 0.00 | 1.37 | 1.02 | 97 | 1008.1 |
| 20260507175837 | 14 | 49 | 3.2 | 6.4 | 0.00 | 1.37 | 1.02 | 97 | 1008.1 |
| 20260507175337 | 14 | 4 | 3.2 | 20.9 | 0.03 | 1.37 | 1.02 | 97 | 1008.4 |
| 20260507174837 | 15 | 343 | 3.2 | 20.9 | 0.03 | 1.37 | 1.02 | 96 | 1008.8 |
| 20260507174337 | 15 | 324 | 6.4 | 17.7 | 0.03 | 1.37 | 1.02 | 97 | 1009.1 |
| 20260507173836 | 15 | 74 | 1.6 | 14.5 | 0.05 | 1.37 | 1.02 | 96 | 1009.1 |
| 20260507173336 | 15 | 347 | 4.8 | 14.5 | 0.05 | 1.37 | 1.02 | 96 | 1008.4 |
| 20260507172837 | 16 | 258 | 0.0 | 12.9 | 0.05 | 1.37 | 1.02 | 96 | 1008.1 |
| 20260507172556 | 16 | 21 | 0.0 | 14.5 | 0.05 | 1.37 | 1.02 | 95 | 1008.1 |
| 20260507171837 | 17 | 0 | 3.2 | 16.1 | 0.08 | 1.37 | 1.02 | 95 | 1007.7 |
| 20260507171558 | 18 | 15 | 0.0 | 16.1 | 0.08 | 1.37 | 1.02 | 95 | 1007.5 |
| 20260507170837 | 19 | 315 | 0.0 | 11.3 | 0.08 | 1.37 | 1.02 | 98 | 1007.3 |
| 20260507170337 | 19 | 319 | 0.0 | 0.0 | 0.08 | 1.37 | 1.02 | 98 | 1007.1 |
| 20260507165837 | 19 | 319 | 0.0 | 0.0 | 0.05 | 1.35 | 1.02 | 98 | 1007.2 |
| 20260507165337 | 19 | 319 | 0.0 | 0.0 | 0.05 | 1.35 | 0.99 | 98 | 1007.3 |
| 20260507164837 | 18 | 310 | 0.0 | 0.0 | 0.05 | 1.35 | 0.99 | 98 | 1007.6 |
| 20260507164337 | 19 | 310 | 0.0 | 3.2 | 0.05 | 1.35 | 0.99 | 97 | 1007.7 |
| 20260507163837 | 19 | 256 | 0.0 | 4.8 | 0.03 | 1.32 | 0.99 | 97 | 1008.2 |
| 20260507163603 | 20 | 244 | 0.0 | 6.4 | 0.03 | 1.32 | 0.97 | 97 | 1008.5 |
| 20260507162837 | 20 | 301 | 0.0 | 6.4 | 0.03 | 1.32 | 0.97 | 98 | 1008.5 |
| 20260507162338 | 20 | 255 | 0.0 | 4.8 | 0.03 | 1.32 | 0.97 | 98 | 1008.3 |
| 20260507161837 | 20 | 280 | 0.0 | 9.7 | 0.03 | 1.30 | 0.94 | 98 | 1008.5 |
| 20260507161557 | 20 | 265 | 1.6 | 9.7 | 0.03 | 1.30 | 0.94 | 98 | 1008.5 |
| 20260507160837 | 20 | 270 | 0.0 | 4.8 | 0.03 | 1.30 | 0.94 | 98 | 1008.6 |
| 20260507160337 | 20 | 256 | 0.0 | 9.7 | 0.03 | 1.30 | 0.94 | 98 | 1008.6 |
| 20260507160057 | 20 | 259 | 0.0 | 9.7 | 0.05 | 1.30 | 0.94 | 98 | 1008.6 |
| 20260507154838 | 20 | 272 | 1.6 | 4.8 | 0.08 | 1.30 | 0.94 | 98 | 1008.7 |
| 20260507154337 | 20 | 264 | 0.0 | 4.8 | 0.08 | 1.30 | 0.94 | 98 | 1008.4 |
| 20260507153837 | 19 | 282 | 0.0 | 1.6 | 0.10 | 1.30 | 0.94 | 98 | 1008.2 |
| 20260507153337 | 19 | 257 | 0.0 | 1.6 | 0.13 | 1.27 | 0.94 | 98 | 1008.0 |
| 20260507153101 | 20 | 279 | 0.0 | 0.0 | 0.15 | 1.27 | 0.94 | 98 | 1008.7 |
| 20260507152337 | 20 | 293 | 0.0 | 0.0 | 0.15 | 1.27 | 0.94 | 98 | 1008.5 |
| 20260507151837 | 20 | 275 | 0.0 | 0.0 | 0.23 | 1.27 | 0.94 | 98 | 1008.6 |
| 20260507151554 | 19 | 324 | 0.0 | 0.0 | 0.23 | 1.27 | 0.94 | 98 | 1008.6 |
| 20260507150837 | 19 | 348 | 0.0 | 0.0 | 0.20 | 1.27 | 0.91 | 98 | 1008.5 |
| 20260507150337 | 19 | 215 | 0.0 | 0.0 | 0.20 | 1.27 | 0.91 | 98 | 1008.7 |
| 20260507145837 | 19 | 215 | 0.0 | 0.0 | 0.20 | 1.24 | 0.89 | 98 | 1008.8 |
| 20260507145337 | 19 | 272 | 0.0 | 0.0 | 0.20 | 1.22 | 0.89 | 98 | 1008.7 |
| 20260507144837 | 19 | 277 | 0.0 | 3.2 | 0.20 | 1.22 | 0.86 | 98 | 1009.0 |
| 20260507144337 | 19 | 288 | 0.0 | 3.2 | 0.23 | 1.22 | 0.86 | 98 | 1009.0 |
| 20260507143837 | 19 | 273 | 0.0 | 0.0 | 0.20 | 1.19 | 0.84 | 98 | 1009.2 |
| 20260507143338 | 19 | 292 | 0.0 | 0.0 | 0.18 | 1.17 | 0.81 | 98 | 1008.9 |
| 20260507142836 | 19 | 292 | 0.0 | 3.2 | 0.15 | 1.14 | 0.79 | 98 | 1008.9 |
| 20260507142337 | 19 | 255 | 0.0 | 3.2 | 0.15 | 1.12 | 0.76 | 98 | 1009.0 |
| 20260507141837 | 19 | 268 | 0.0 | 3.2 | 0.08 | 1.07 | 0.71 | 97 | 1008.7 |
| 20260507141337 | 19 | 316 | 0.0 | 4.8 | 0.08 | 1.07 | 0.71 | 97 | 1008.8 |
| 20260507140837 | 19 | 263 | 0.0 | 3.2 | 0.08 | 1.07 | 0.71 | 98 | 1008.8 |
| 20260507140337 | 19 | 257 | 0.0 | 11.3 | 0.08 | 1.07 | 0.71 | 98 | 1008.7 |
| 20260507135837 | 19 | 254 | 0.0 | 11.3 | 0.05 | 1.04 | 0.69 | 98 | 1009.1 |
| 20260507135337 | 19 | 220 | 0.0 | 4.8 | 0.05 | 1.04 | 0.69 | 97 | 1009.2 |
| 20260507134837 | 19 | 250 | 0.0 | 6.4 | 0.03 | 1.02 | 0.66 | 97 | 1009.4 |
| 20260507134337 | 19 | 259 | 0.0 | 6.4 | 0.00 | 0.99 | 0.64 | 98 | 1009.4 |
| 20260507133837 | 19 | 236 | 0.0 | 4.8 | 0.00 | 0.99 | 0.64 | 97 | 1009.4 |
| 20260507133337 | 19 | 262 | 0.0 | 4.8 | 0.00 | 0.99 | 0.64 | 97 | 1009.0 |
| 20260507132838 | 19 | 254 | 0.0 | 0.0 | 0.00 | 0.99 | 0.64 | 97 | 1009.2 |
| 20260507132603 | 19 | 249 | 0.0 | 1.6 | 0.00 | 0.99 | 0.64 | 97 | 1009.0 |
| 20260507131837 | 18 | 244 | 0.0 | 1.6 | 0.00 | 0.99 | 0.64 | 97 | 1009.2 |
| 20260507131337 | 18 | 263 | 0.0 | 0.0 | 0.00 | 0.99 | 0.64 | 97 | 1009.1 |
| 20260507130837 | 18 | 279 | 0.0 | 0.0 | 0.00 | 0.99 | 0.64 | 97 | 1009.4 |
| 20260507130338 | 18 | 287 | 0.0 | 0.0 | 0.00 | 0.99 | 0.64 | 97 | 1009.2 |
| 20260507125837 | 18 | 262 | 0.0 | 0.0 | 0.00 | 0.99 | 0.64 | 97 | 1009.2 |
| 20260507125337 | 18 | 241 | 0.0 | 0.0 | 0.00 | 0.99 | 0.64 | 97 | 1009.1 |
| 20260507124337 | 18 | 284 | 0.0 | 6.4 | 0.00 | 0.99 | 0.64 | 97 | 1009.1 |
| 20260507123837 | 18 | 312 | 0.0 | 0.0 | 0.00 | 0.99 | 0.64 | 97 | 1009.6 |
| 20260507123337 | 18 | 315 | 0.0 | 0.0 | 0.00 | 0.99 | 0.64 | 97 | 1009.6 |
| 20260507122837 | 18 | 245 | 0.0 | 0.0 | 0.00 | 0.99 | 0.64 | 97 | 1009.4 |
| 20260507122337 | 18 | 245 | 0.0 | 0.0 | 0.05 | 0.99 | 0.64 | 97 | 1009.4 |
| 20260507122056 | 18 | 245 | 0.0 | 0.0 | 0.05 | 0.99 | 0.64 | 97 | 1009.5 |
| 20260507121337 | 18 | 266 | 0.0 | 0.0 | 0.05 | 0.99 | 0.64 | 97 | 1009.5 |
| 20260507120837 | 18 | 311 | 0.0 | 3.2 | 0.05 | 0.99 | 0.64 | 97 | 1009.2 |
| 20260507120556 | 18 | 269 | 0.0 | 3.2 | 0.05 | 0.99 | 0.64 | 97 | 1009.5 |
| 20260507115837 | 18 | 272 | 0.0 | 0.0 | 0.05 | 0.99 | 0.64 | 97 | 1009.4 |
| 20260507115337 | 18 | 267 | 0.0 | 0.0 | 0.05 | 0.99 | 0.64 | 97 | 1009.4 |
| 20260507114836 | 18 | 266 | 0.0 | 0.0 | 0.05 | 0.99 | 0.64 | 97 | 1009.6 |
| 20260507114337 | 18 | 279 | 0.0 | 4.8 | 0.08 | 0.99 | 0.64 | 97 | 1009.9 |
| 20260507113838 | 18 | 251 | 0.0 | 4.8 | 0.05 | 0.97 | 0.61 | 97 | 1009.9 |
| 20260507113337 | 18 | 268 | 3.2 | 4.8 | 0.05 | 0.97 | 0.61 | 97 | 1009.8 |
| 20260507112837 | 18 | 273 | 0.0 | 3.2 | 0.05 | 0.97 | 0.61 | 97 | 1009.9 |
| 20260507112337 | 18 | 261 | 0.0 | 4.8 | 0.05 | 0.94 | 0.58 | 97 | 1009.9 |
| 20260507111837 | 18 | 288 | 1.6 | 4.8 | 0.03 | 0.91 | 0.56 | 97 | 1009.8 |
| 20260507111338 | 18 | 120 | 0.0 | 1.6 | 0.03 | 0.91 | 0.56 | 97 | 1009.8 |
| 20260507110837 | 18 | 269 | 0.0 | 3.2 | 0.03 | 0.91 | 0.56 | 97 | 1010.0 |
| 20260507110337 | 18 | 265 | 0.0 | 3.2 | 0.03 | 0.91 | 0.56 | 97 | 1009.9 |
| 20260507105837 | 18 | 249 | 0.0 | 4.8 | 0.03 | 0.91 | 0.56 | 97 | 1009.7 |
| 20260507105337 | 18 | 249 | 3.2 | 4.8 | 0.03 | 0.91 | 0.56 | 97 | 1009.2 |
| 20260507104837 | 18 | 253 | 0.0 | 3.2 | 0.05 | 0.91 | 0.56 | 97 | 1009.2 |
| 20260507104337 | 18 | 245 | 0.0 | 3.2 | 0.03 | 0.91 | 0.56 | 97 | 1009.4 |
| 20260507103837 | 18 | 281 | 0.0 | 4.8 | 0.03 | 0.91 | 0.56 | 97 | 1009.2 |
| 20260507103338 | 18 | 268 | 0.0 | 4.8 | 0.03 | 0.91 | 0.56 | 97 | 1009.2 |
| 20260507102837 | 18 | 223 | 1.6 | 1.6 | 0.03 | 0.91 | 0.56 | 97 | 1009.2 |
| 20260507102554 | 18 | 221 | 0.0 | 1.6 | 0.03 | 0.89 | 0.56 | 97 | 1009.5 |
| 20260507101837 | 18 | 220 | 0.0 | 1.6 | 0.03 | 0.89 | 0.56 | 97 | 1009.2 |
| 20260507101337 | 18 | 226 | 0.0 | 0.0 | 0.03 | 0.89 | 0.56 | 96 | 1009.1 |
| 20260507100837 | 18 | 227 | 0.0 | 0.0 | 0.03 | 0.89 | 0.56 | 96 | 1009.4 |
| 20260507100337 | 18 | 223 | 0.0 | 0.0 | 0.03 | 0.89 | 0.53 | 96 | 1009.2 |
| 20260507095837 | 18 | 223 | 0.0 | 1.6 | 0.03 | 0.89 | 0.53 | 96 | 1009.2 |
| 20260507095337 | 18 | 285 | 0.0 | 1.6 | 0.03 | 0.89 | 0.53 | 96 | 1009.4 |
| 20260507094837 | 18 | 274 | 0.0 | 1.6 | 0.00 | 0.89 | 0.53 | 96 | 1009.5 |
| 20260507094336 | 18 | 231 | 0.0 | 1.6 | 0.00 | 0.89 | 0.53 | 96 | 1009.5 |
| 20260507093837 | 18 | 224 | 0.0 | 3.2 | 0.00 | 0.89 | 0.53 | 96 | 1009.6 |
| 20260507093337 | 18 | 224 | 0.0 | 3.2 | 0.00 | 0.89 | 0.53 | 96 | 1009.5 |
| 20260507092837 | 18 | 239 | 0.0 | 0.0 | 0.00 | 0.89 | 0.53 | 96 | 1009.1 |
| 20260507092600 | 18 | 239 | 0.0 | 1.6 | 0.00 | 0.89 | 0.53 | 96 | 1009.0 |
| 20260507091838 | 18 | 239 | 0.0 | 1.6 | 0.00 | 0.86 | 0.53 | 96 | 1009.5 |
| 20260507091337 | 18 | 236 | 0.0 | 0.0 | 0.00 | 0.86 | 0.51 | 96 | 1009.5 |
| 20260507090837 | 18 | 236 | 0.0 | 1.6 | 0.00 | 0.86 | 0.51 | 96 | 1009.5 |
| 20260507090608 | 18 | 237 | 0.0 | 1.6 | 0.03 | 0.86 | 0.51 | 96 | 1009.6 |
| 20260507085837 | 18 | 236 | 0.0 | 0.0 | 0.03 | 0.86 | 0.51 | 96 | 1009.7 |
| 20260507085337 | 18 | 236 | 0.0 | 0.0 | 0.03 | 0.86 | 0.51 | 96 | 1009.4 |
| 20260507084837 | 18 | 236 | 0.0 | 0.0 | 0.03 | 0.86 | 0.51 | 96 | 1009.4 |
| 20260507084337 | 18 | 236 | 0.0 | 0.0 | 0.08 | 0.86 | 0.51 | 96 | 1009.7 |
| 20260507083837 | 18 | 236 | 0.0 | 0.0 | 0.08 | 0.86 | 0.51 | 96 | 1009.7 |
| 20260507083337 | 18 | 236 | 0.0 | 0.0 | 0.08 | 0.86 | 0.51 | 96 | 1010.0 |
| 20260507082837 | 18 | 236 | 0.0 | 0.0 | 0.08 | 0.86 | 0.51 | 96 | 1010.1 |
| 20260507082337 | 18 | 236 | 0.0 | 0.0 | 0.08 | 0.86 | 0.51 | 96 | 1010.3 |
| 20260507081836 | 18 | 236 | 0.0 | 0.0 | 0.05 | 0.86 | 0.51 | 96 | 1010.4 |
| 20260507081337 | 18 | 236 | 0.0 | 0.0 | 0.05 | 0.86 | 0.51 | 96 | 1010.4 |
| 20260507080837 | 18 | 236 | 0.0 | 0.0 | 0.05 | 0.86 | 0.51 | 95 | 1010.1 |
| 20260507080337 | 18 | 236 | 0.0 | 0.0 | 0.05 | 0.84 | 0.51 | 95 | 1010.0 |
| 20260507075837 | 18 | 236 | 0.0 | 1.6 | 0.05 | 0.84 | 0.51 | 95 | 1009.7 |
| 20260507075337 | 18 | 236 | 0.0 | 1.6 | 0.05 | 0.84 | 0.51 | 95 | 1009.7 |
| 20260507074837 | 18 | 236 | 0.0 | 1.6 | 0.05 | 0.84 | 0.48 | 95 | 1009.9 |
| 20260507074337 | 18 | 237 | 1.6 | 1.6 | 0.00 | 0.79 | 0.46 | 95 | 1010.4 |
| 20260507073836 | 18 | 236 | 0.0 | 1.6 | 0.00 | 0.79 | 0.46 | 95 | 1010.9 |
| 20260507073337 | 18 | 235 | 0.0 | 0.0 | 0.00 | 0.79 | 0.46 | 95 | 1010.8 |
| 20260507073059 | 18 | 234 | 0.0 | 0.0 | 0.00 | 0.79 | 0.46 | 95 | 1010.6 |
| 20260507072337 | 18 | 234 | 0.0 | 0.0 | 0.00 | 0.79 | 0.46 | 95 | 1010.5 |
| 20260507071837 | 18 | 234 | 0.0 | 0.0 | 0.00 | 0.79 | 0.46 | 95 | 1010.7 |
| 20260507071337 | 18 | 234 | 0.0 | 0.0 | 0.00 | 0.79 | 0.46 | 95 | 1010.5 |
| 20260507070837 | 18 | 234 | 0.0 | 0.0 | 0.00 | 0.79 | 0.46 | 95 | 1010.6 |
| 20260507070337 | 18 | 234 | 0.0 | 0.0 | 0.00 | 0.79 | 0.46 | 95 | 1010.4 |
| 20260507065837 | 18 | 234 | 0.0 | 0.0 | 0.00 | 0.79 | 0.43 | 95 | 1010.1 |
| 20260507065337 | 18 | 234 | 0.0 | 0.0 | 0.00 | 0.79 | 0.43 | 95 | 1010.4 |
| 20260507064837 | 18 | 234 | 0.0 | 0.0 | 0.00 | 0.79 | 0.43 | 95 | 1010.7 |
| 20260507064337 | 18 | 234 | 0.0 | 0.0 | 0.00 | 0.79 | 0.43 | 95 | 1011.0 |
| 20260507063837 | 18 | 234 | 0.0 | 0.0 | 0.00 | 0.79 | 0.43 | 95 | 1011.2 |
| 20260507063555 | 18 | 234 | 0.0 | 0.0 | 0.00 | 0.79 | 0.43 | 95 | 1011.4 |
| 20260507062836 | 18 | 233 | 0.0 | 0.0 | 0.00 | 0.79 | 0.43 | 94 | 1011.2 |
| 20260507062336 | 18 | 230 | 0.0 | 3.2 | 0.03 | 0.79 | 0.43 | 94 | 1011.1 |
| 20260507062056 | 18 | 229 | 0.0 | 3.2 | 0.05 | 0.79 | 0.43 | 94 | 1010.7 |
| 20260507061337 | 18 | 230 | 0.0 | 3.2 | 0.10 | 0.79 | 0.43 | 94 | 1011.1 |
| 20260507060837 | 18 | 273 | 0.0 | 3.2 | 0.13 | 0.79 | 0.43 | 94 | 1011.5 |
| 20260507060337 | 18 | 273 | 0.0 | 3.2 | 0.15 | 0.79 | 0.43 | 94 | 1011.6 |
| 20260507055837 | 18 | 273 | 0.0 | 4.8 | 0.18 | 0.79 | 0.43 | 94 | 1011.4 |
| 20260507055337 | 18 | 273 | 0.0 | 4.8 | 0.20 | 0.79 | 0.43 | 94 | 1011.3 |
| 20260507054837 | 18 | 278 | 4.8 | 4.8 | 0.23 | 0.79 | 0.43 | 94 | 1011.4 |
| 20260507054337 | 18 | 346 | 0.0 | 0.0 | 0.23 | 0.79 | 0.43 | 94 | 1011.5 |
| 20260507053837 | 18 | 346 | 0.0 | 0.0 | 0.28 | 0.79 | 0.43 | 94 | 1011.1 |
| 20260507053337 | 18 | 347 | 0.0 | 0.0 | 0.33 | 0.79 | 0.43 | 94 | 1010.7 |
| 20260507052837 | 18 | 346 | 0.0 | 0.0 | 0.41 | 0.79 | 0.43 | 93 | 1010.6 |
| 20260507052337 | 18 | 345 | 0.0 | 1.6 | 0.41 | 0.76 | 0.41 | 93 | 1011.0 |
| 20260507051838 | 18 | 341 | 0.0 | 4.8 | 0.38 | 0.74 | 0.41 | 93 | 1010.7 |
| 20260507051337 | 18 | 342 | 0.0 | 9.7 | 0.33 | 0.71 | 0.36 | 92 | 1010.7 |
| 20260507051101 | 18 | 264 | 4.8 | 9.7 | 0.30 | 0.66 | 0.33 | 92 | 1011.2 |
| 20260507050337 | 18 | 244 | 1.6 | 3.2 | 0.30 | 0.66 | 0.30 | 92 | 1010.9 |
| 20260507045837 | 19 | 247 | 1.6 | 9.7 | 0.28 | 0.61 | 0.28 | 91 | 1011.3 |
| 20260507045602 | 19 | 268 | 3.2 | 16.1 | 0.23 | 0.58 | 0.23 | 89 | 1011.9 |
| 20260507044838 | 19 | 251 | 9.7 | 17.7 | 0.23 | 0.56 | 0.23 | 88 | 1012.7 |
| 20260507044337 | 20 | 268 | 9.7 | 17.7 | 0.20 | 0.56 | 0.20 | 87 | 1012.4 |
| 20260507044054 | 20 | 273 | 11.3 | 16.1 | 0.15 | 0.51 | 0.15 | 86 | 1012.7 |
| 20260507043338 | 20 | 245 | 4.8 | 17.7 | 0.13 | 0.48 | 0.13 | 85 | 1012.7 |
| 20260507042837 | 20 | 281 | 6.4 | 17.7 | 0.03 | 0.38 | 0.05 | 84 | 1012.6 |
| 20260507042337 | 20 | 256 | 9.7 | 16.1 | 0.03 | 0.36 | 0.00 | 84 | 1012.8 |
| 20260507042052 | 20 | 270 | 6.4 | 16.1 | 0.03 | 0.36 | 0.00 | 84 | 1012.7 |
| 20260507041337 | 20 | 268 | 4.8 | 9.7 | 0.03 | 0.36 | 0.00 | 84 | 1012.7 |
| 20260507040837 | 20 | 271 | 4.8 | 6.4 | 0.03 | 0.36 | 0.00 | 83 | 1012.5 |
| 20260507040557 | 20 | 278 | 4.8 | 4.8 | 0.00 | 0.36 | 0.00 | 83 | 1012.2 |
| 20260507035837 | 20 | 266 | 1.6 | 3.2 | 0.00 | 0.36 | 0.36 | 83 | 1012.1 |
| 20260507035601 | 20 | 271 | 3.2 | 3.2 | 0.00 | 0.36 | 0.36 | 83 | 1011.9 |
| 20260507034837 | 21 | 238 | 1.6 | 3.2 | 0.00 | 0.36 | 0.36 | 82 | 1011.5 |
| 20260507034337 | 21 | 238 | 1.6 | 1.6 | 0.00 | 0.36 | 0.36 | 81 | 1011.5 |
| 20260507033837 | 21 | 238 | 0.0 | 3.2 | 0.00 | 0.36 | 0.36 | 81 | 1011.4 |
| 20260507033336 | 21 | 238 | 0.0 | 6.4 | 0.00 | 0.36 | 0.36 | 80 | 1011.3 |
| 20260507032837 | 21 | 238 | 1.6 | 9.7 | 0.00 | 0.36 | 0.36 | 78 | 1011.7 |
| 20260507032337 | 21 | 231 | 3.2 | 9.7 | 0.00 | 0.33 | 0.33 | 78 | 1012.0 |
| 20260507031837 | 21 | 255 | 3.2 | 6.4 | 0.00 | 0.33 | 0.33 | 78 | 1011.9 |
| 20260507031337 | 21 | 230 | 0.0 | 6.4 | 0.00 | 0.33 | 0.33 | 78 | 1011.9 |
| 20260507030837 | 21 | 249 | 3.2 | 9.7 | 0.00 | 0.33 | 0.33 | 78 | 1011.7 |
| 20260507030337 | 21 | 241 | 0.0 | 9.7 | 0.00 | 0.33 | 0.33 | 78 | 1011.6 |